AAL2509 KLGA-KPBI

Flight info

Callsign AAL2509
Flight time N/A
Altitude 36000
Route WHITE Q409 CRPLR PAACK Q97 KENLL CPTAN3
Aircraft B738/M-SDE2E3FGHIRWXY/LB1

Departure

Time 2026-05-01 13:07
Airport LaGuardia Airport (KLGA)

Arrival

Time N/A
Airport Palm Beach International Airport (KPBI)
Time Latitude Longitude Altitude Speed Heading
2026-05-01 12:32 40.77628 -73.87168 18 ft 0 kts 169°
2026-05-01 12:55 40.77629 -73.87169 18 ft 2 kts 169°
2026-05-01 12:55 40.77651 -73.87175 19 ft 4 kts 141°
2026-05-01 12:56 40.77664 -73.87196 18 ft 4 kts 122°
2026-05-01 12:56 40.77678 -73.87227 18 ft 4 kts 121°
2026-05-01 12:56 40.77690 -73.87251 18 ft 4 kts 114°
2026-05-01 12:56 40.77695 -73.87284 18 ft 4 kts 88°
2026-05-01 12:57 40.77694 -73.87319 18 ft 2 kts 95°
2026-05-01 12:57 40.77694 -73.87322 18 ft 0 kts 96°
2026-05-01 13:01 40.77694 -73.87319 18 ft 1 kts 96°
2026-05-01 13:01 40.77699 -73.87290 18 ft 5 kts 65°
2026-05-01 13:01 40.77774 -73.87337 14 ft 11 kts 265°
2026-05-01 13:02 40.77755 -73.87434 16 ft 11 kts 246°
2026-05-01 13:07 40.77599 -73.87855 23 ft 124 kts 32°
2026-05-01 13:07 40.78517 -73.87114 65 ft 179 kts 32°
2026-05-01 13:07 40.79561 -73.86217 893 ft 177 kts 30°
2026-05-01 13:08 40.80721 -73.85671 1648 ft 185 kts
2026-05-01 13:08 40.82029 -73.85899 2163 ft 201 kts 348°
2026-05-01 13:08 40.83491 -73.86284 2431 ft 227 kts 347°
2026-05-01 13:08 40.85095 -73.86706 2890 ft 242 kts 347°
2026-05-01 13:09 40.86781 -73.87150 3616 ft 250 kts 347°
2026-05-01 13:09 40.88466 -73.87767 4495 ft 252 kts 332°
2026-05-01 13:09 40.89796 -73.89251 5351 ft 254 kts 304°
2026-05-01 13:09 40.90420 -73.91424 6160 ft 261 kts 278°
2026-05-01 13:10 40.90165 -73.93817 6858 ft 268 kts 251°
2026-05-01 13:10 40.89161 -73.95909 6969 ft 276 kts 228°
2026-05-01 13:10 40.87618 -73.97334 6992 ft 277 kts 208°
2026-05-01 13:10 40.85854 -73.98334 7049 ft 278 kts 207°
2026-05-01 13:11 40.84072 -73.99351 6995 ft 278 kts 207°
2026-05-01 13:11 40.82314 -74.00364 6991 ft 275 kts 207°
2026-05-01 13:11 40.80542 -74.01288 7018 ft 275 kts 200°
2026-05-01 13:11 40.78673 -74.01956 7025 ft 281 kts 198°
2026-05-01 13:12 40.76765 -74.02554 7024 ft 283 kts 196°
2026-05-01 13:12 40.74934 -74.03095 7017 ft 282 kts 196°
2026-05-01 13:12 40.73028 -74.03653 7015 ft 281 kts 196°
2026-05-01 13:12 40.71142 -74.04207 7019 ft 280 kts 196°
2026-05-01 13:13 40.69244 -74.04767 7011 ft 279 kts 196°
2026-05-01 13:13 40.67360 -74.05326 7016 ft 279 kts 196°
2026-05-01 13:13 40.65465 -74.05890 7054 ft 281 kts 196°
2026-05-01 13:13 40.63538 -74.06465 7576 ft 287 kts 196°
2026-05-01 13:14 40.61598 -74.07044 8489 ft 285 kts 196°
2026-05-01 13:14 40.59658 -74.07623 9334 ft 287 kts 197°
2026-05-01 13:14 40.57703 -74.08207 10146 ft 289 kts 197°
2026-05-01 13:14 40.55731 -74.08799 10638 ft 304 kts 198°
2026-05-01 13:15 40.53586 -74.09448 10833 ft 328 kts 198°
2026-05-01 13:15 40.51285 -74.10142 11017 ft 350 kts 197°
2026-05-01 13:15 40.48848 -74.10873 11282 ft 367 kts 197°
2026-05-01 13:15 40.46331 -74.11622 11527 ft 372 kts 197°
2026-05-01 13:16 40.43822 -74.12360 11768 ft 368 kts 198°
2026-05-01 13:16 40.41329 -74.13094 12008 ft 368 kts 198°
2026-05-01 13:16 40.38818 -74.13838 12455 ft 373 kts 198°
2026-05-01 13:17 40.31243 -74.16084 14650 ft 376 kts 199°
2026-05-01 13:17 40.28682 -74.16844 15297 ft 379 kts 199°
2026-05-01 13:18 40.23481 -74.18388 16181 ft 389 kts 199°
2026-05-01 13:18 40.20844 -74.19167 16432 ft 387 kts 199°
2026-05-01 13:18 40.18229 -74.19935 16686 ft 385 kts 200°
2026-05-01 13:18 40.15618 -74.20705 16933 ft 386 kts 200°
2026-05-01 13:19 40.12985 -74.21483 17017 ft 389 kts 200°
2026-05-01 13:19 40.10392 -74.22247 17024 ft 386 kts 200°
2026-05-01 13:19 40.05144 -74.23792 17032 ft 387 kts 200°
2026-05-01 13:20 40.02536 -74.24626 17031 ft 383 kts 205°
2026-05-01 13:20 40.00098 -74.25932 17040 ft 376 kts 213°
2026-05-01 13:20 39.97886 -74.27681 17038 ft 369 kts 222°
2026-05-01 13:21 39.93775 -74.31668 17138 ft 367 kts 222°
2026-05-01 13:21 39.91729 -74.33639 17658 ft 364 kts 222°
2026-05-01 13:21 39.89729 -74.35554 18484 ft 360 kts 222°
2026-05-01 13:21 39.87711 -74.37482 19148 ft 360 kts 222°
2026-05-01 13:22 39.85682 -74.39415 19683 ft 364 kts 222°
2026-05-01 13:22 39.83629 -74.41369 20167 ft 368 kts 222°
2026-05-01 13:22 39.81579 -74.43377 20683 ft 368 kts 225°
2026-05-01 13:22 39.79738 -74.45648 21217 ft 366 kts 230°
2026-05-01 13:23 39.77960 -74.48029 21722 ft 368 kts 231°
2026-05-01 13:23 39.76202 -74.50405 22183 ft 371 kts 231°
2026-05-01 13:23 39.74406 -74.52826 22665 ft 373 kts 231°
2026-05-01 13:23 39.72593 -74.55257 23078 ft 376 kts 231°
2026-05-01 13:24 39.70764 -74.57698 23385 ft 378 kts 230°
2026-05-01 13:24 39.68922 -74.60145 23628 ft 378 kts 230°
2026-05-01 13:24 39.67086 -74.62576 23878 ft 377 kts 230°
2026-05-01 13:25 39.63410 -74.67436 24029 ft 381 kts 230°
2026-05-01 13:25 39.61558 -74.69878 24033 ft 379 kts 230°
2026-05-01 13:25 39.59712 -74.72311 24040 ft 379 kts 230°
2026-05-01 13:25 39.57861 -74.74748 24044 ft 379 kts 230°
2026-05-01 13:26 39.56015 -74.77180 24103 ft 378 kts 230°
2026-05-01 13:26 39.54217 -74.79543 24396 ft 375 kts 230°
2026-05-01 13:26 39.52382 -74.81955 24703 ft 379 kts 230°
2026-05-01 13:26 39.50516 -74.84410 24992 ft 384 kts 230°
2026-05-01 13:27 39.48665 -74.86842 25352 ft 386 kts 231°
2026-05-01 13:27 39.46814 -74.89269 25735 ft 388 kts 231°
2026-05-01 13:27 39.43089 -74.94146 26445 ft 391 kts 231°
2026-05-01 13:28 39.39248 -74.99167 27119 ft 395 kts 231°
2026-05-01 13:28 39.37320 -75.01686 27412 ft 397 kts 231°
2026-05-01 13:29 39.33438 -75.06751 28026 ft 400 kts 232°
2026-05-01 13:29 39.29620 -75.11717 28629 ft 403 kts 231°
2026-05-01 13:30 39.21352 -75.21370 30068 ft 402 kts 230°
2026-05-01 13:31 39.17198 -75.26182 30745 ft 400 kts 230°
2026-05-01 13:31 39.11030 -75.33371 31712 ft 398 kts 231°
2026-05-01 13:32 39.06957 -75.38111 32351 ft 396 kts 231°
2026-05-01 13:33 38.99831 -75.43852 33207 ft 424 kts 211°
2026-05-01 13:33 38.93848 -75.45375 33643 ft 448 kts 198°
2026-05-01 13:34 38.87693 -75.46126 34250 ft 446 kts 198°
2026-05-01 13:34 38.81521 -75.46934 34675 ft 446 kts 199°
2026-05-01 13:35 38.75364 -75.47796 35161 ft 444 kts 199°
2026-05-01 13:35 38.72291 -75.48227 35380 ft 444 kts 199°
2026-05-01 13:35 38.66137 -75.49066 35796 ft 445 kts 199°
2026-05-01 13:36 38.63068 -75.49478 36014 ft 444 kts 199°
2026-05-01 13:36 38.53832 -75.50722 36050 ft 446 kts 199°
2026-05-01 13:37 38.47692 -75.51543 36056 ft 442 kts 199°
2026-05-01 13:37 38.41600 -75.52365 36065 ft 439 kts 199°
2026-05-01 13:38 38.35637 -75.53474 36063 ft 420 kts 210°
2026-05-01 13:38 38.32974 -75.54690 36082 ft 407 kts 217°
2026-05-01 13:39 38.28203 -75.58277 36091 ft 396 kts 227°
2026-05-01 13:39 38.23634 -75.62318 36081 ft 402 kts 226°
2026-05-01 13:40 38.19024 -75.66360 36074 ft 404 kts 226°
2026-05-01 13:40 38.14413 -75.70371 36072 ft 404 kts 226°
2026-05-01 13:41 38.09778 -75.74390 36071 ft 403 kts 226°
2026-05-01 13:41 38.05155 -75.78392 36074 ft 401 kts 226°
2026-05-01 13:42 38.00549 -75.82375 36071 ft 400 kts 226°
2026-05-01 13:42 37.95959 -75.86340 36073 ft 398 kts 227°
2026-05-01 13:43 37.91415 -75.90259 36073 ft 397 kts 227°
2026-05-01 13:43 37.86853 -75.94187 36073 ft 396 kts 227°
2026-05-01 13:44 37.82309 -75.98094 36073 ft 395 kts 227°
2026-05-01 13:44 37.77768 -76.01994 36074 ft 394 kts 227°
2026-05-01 13:45 37.73236 -76.05879 36074 ft 394 kts 227°
2026-05-01 13:45 37.68730 -76.09738 36075 ft 394 kts 227°
2026-05-01 13:46 37.64191 -76.13620 36076 ft 394 kts 227°
2026-05-01 13:46 37.59584 -76.17436 36070 ft 402 kts 223°
2026-05-01 13:47 37.54618 -76.20780 36074 ft 406 kts 221°
2026-05-01 13:47 37.49627 -76.24029 36076 ft 406 kts 221°
2026-05-01 13:48 37.44612 -76.27318 36083 ft 406 kts 221°
2026-05-01 13:48 37.39608 -76.30626 36083 ft 406 kts 221°
2026-05-01 13:49 37.34604 -76.33941 36088 ft 407 kts 221°
2026-05-01 13:49 37.29594 -76.37257 36081 ft 407 kts 221°
2026-05-01 13:50 37.24618 -76.40544 36083 ft 407 kts 221°
2026-05-01 13:50 37.19603 -76.43853 36077 ft 407 kts 221°
2026-05-01 13:51 37.14587 -76.47157 36088 ft 407 kts 221°
2026-05-01 13:51 37.09576 -76.50453 36081 ft 407 kts 221°
2026-05-01 13:52 37.04592 -76.53725 36085 ft 407 kts 221°
2026-05-01 13:52 36.99582 -76.57012 36082 ft 407 kts 221°
2026-05-01 13:53 36.94569 -76.60294 36082 ft 407 kts 221°
2026-05-01 13:53 36.87052 -76.65207 36081 ft 407 kts 222°
2026-05-01 13:54 36.82035 -76.68479 36084 ft 407 kts 221°
2026-05-01 13:54 36.77058 -76.71722 36081 ft 407 kts 221°
2026-05-01 13:55 36.72042 -76.74984 36087 ft 407 kts 221°
2026-05-01 13:55 36.67021 -76.78245 36083 ft 407 kts 221°
2026-05-01 13:56 36.62002 -76.81500 36085 ft 407 kts 221°
2026-05-01 13:56 36.57008 -76.84733 36081 ft 407 kts 221°
2026-05-01 13:57 36.52794 -76.87459 36085 ft 407 kts 221°
2026-05-01 13:57 36.46943 -76.91238 36085 ft 408 kts 221°
2026-05-01 13:58 36.41909 -76.94483 36082 ft 408 kts 221°
2026-05-01 13:58 36.36906 -76.97703 36086 ft 407 kts 221°
2026-05-01 13:59 36.31877 -77.00935 36082 ft 407 kts 221°
2026-05-01 13:59 36.26846 -77.04165 36083 ft 407 kts 221°
2026-05-01 14:00 36.21817 -77.07387 36082 ft 407 kts 221°
2026-05-01 14:00 36.16784 -77.10609 36084 ft 407 kts 221°
2026-05-01 14:01 36.11783 -77.13805 36085 ft 407 kts 221°
2026-05-01 14:01 36.06753 -77.17017 36082 ft 407 kts 221°
2026-05-01 14:02 36.01719 -77.20225 36081 ft 407 kts 221°
2026-05-01 14:02 35.96684 -77.23431 36075 ft 407 kts 221°
2026-05-01 14:03 35.91806 -77.26774 36076 ft 394 kts 230°
2026-05-01 14:03 35.87549 -77.30907 36082 ft 390 kts 231°
2026-05-01 14:04 35.83284 -77.35059 36088 ft 391 kts 231°
2026-05-01 14:04 35.79717 -77.38502 36082 ft 393 kts 231°
2026-05-01 14:05 35.74668 -77.43356 36082 ft 394 kts 231°
2026-05-01 14:05 35.70366 -77.47485 36078 ft 395 kts 231°
2026-05-01 14:06 35.66023 -77.51646 36074 ft 396 kts 231°
2026-05-01 14:06 35.61675 -77.55806 36072 ft 396 kts 231°
2026-05-01 14:07 35.57327 -77.59962 36074 ft 396 kts 231°
2026-05-01 14:08 35.50841 -77.66150 36084 ft 395 kts 231°
2026-05-01 14:08 35.46503 -77.70283 36081 ft 395 kts 231°
2026-05-01 14:09 35.42167 -77.74411 36085 ft 394 kts 231°
2026-05-01 14:09 35.37833 -77.78531 36083 ft 394 kts 231°
2026-05-01 14:10 35.33540 -77.82607 36082 ft 393 kts 231°
2026-05-01 14:10 35.29210 -77.86713 36070 ft 394 kts 231°
2026-05-01 14:11 35.24878 -77.90816 36079 ft 394 kts 231°
2026-05-01 14:11 35.18365 -77.96973 36089 ft 395 kts 231°
2026-05-01 14:12 35.14043 -78.01052 36092 ft 396 kts 231°
2026-05-01 14:12 35.09679 -78.05164 36093 ft 396 kts 231°
2026-05-01 14:13 35.06044 -78.08585 36089 ft 397 kts 231°
2026-05-01 14:13 35.00917 -78.13403 36087 ft 398 kts 230°
2026-05-01 14:14 34.96552 -78.17499 36085 ft 399 kts 230°
2026-05-01 14:14 34.92152 -78.21622 36087 ft 399 kts 230°
2026-05-01 14:15 34.87749 -78.25743 36093 ft 400 kts 230°
2026-05-01 14:15 34.83334 -78.29868 36092 ft 400 kts 230°
2026-05-01 14:16 34.78950 -78.33959 36092 ft 400 kts 230°
2026-05-01 14:16 34.74524 -78.38083 36093 ft 401 kts 230°
2026-05-01 14:17 34.70088 -78.42212 36080 ft 401 kts 230°
2026-05-01 14:17 34.65656 -78.46330 36085 ft 401 kts 230°
2026-05-01 14:18 34.61221 -78.50447 36082 ft 401 kts 230°
2026-05-01 14:18 34.57530 -78.53868 36084 ft 401 kts 230°
2026-05-01 14:19 34.52368 -78.58646 36084 ft 401 kts 230°
2026-05-01 14:19 34.47927 -78.62751 36083 ft 401 kts 230°
2026-05-01 14:20 34.42017 -78.68207 36074 ft 401 kts 230°
2026-05-01 14:21 34.36748 -78.72862 36069 ft 406 kts 227°
2026-05-01 14:21 34.32829 -78.76074 36072 ft 406 kts 227°
2026-05-01 14:22 34.25872 -78.81824 36072 ft 405 kts 227°
2026-05-01 14:22 34.21238 -78.85685 36070 ft 405 kts 227°
2026-05-01 14:23 34.16602 -78.89543 36063 ft 405 kts 227°
2026-05-01 14:23 34.11963 -78.93402 36064 ft 404 kts 227°
2026-05-01 14:24 34.07363 -78.97226 36053 ft 405 kts 227°
2026-05-01 14:24 34.02727 -79.01076 36063 ft 405 kts 227°
2026-05-01 14:25 33.98088 -79.04923 36052 ft 405 kts 227°
2026-05-01 14:25 33.93444 -79.08770 36058 ft 405 kts 227°
2026-05-01 14:26 33.86488 -79.14521 36057 ft 407 kts 227°
2026-05-01 14:27 33.81814 -79.18380 36055 ft 409 kts 227°
2026-05-01 14:27 33.77117 -79.22252 36057 ft 410 kts 226°
2026-05-01 14:28 33.70076 -79.28047 36057 ft 411 kts 226°
2026-05-01 14:28 33.65365 -79.31946 36054 ft 411 kts 227°
2026-05-01 14:29 33.60707 -79.35903 36039 ft 410 kts 227°
2026-05-01 14:30 33.51446 -79.43783 36036 ft 409 kts 227°
2026-05-01 14:31 33.44478 -79.49679 36036 ft 408 kts 227°
2026-05-01 14:31 33.39837 -79.53599 36033 ft 408 kts 227°
2026-05-01 14:32 33.35203 -79.57506 36050 ft 408 kts 227°
2026-05-01 14:32 33.30598 -79.61385 36033 ft 408 kts 227°
2026-05-01 14:33 33.25962 -79.65285 36032 ft 408 kts 227°
2026-05-01 14:33 33.21314 -79.69190 36026 ft 408 kts 227°
2026-05-01 14:34 33.16696 -79.73065 36021 ft 409 kts 227°
2026-05-01 14:34 33.12041 -79.76965 36016 ft 409 kts 226°
2026-05-01 14:35 33.07372 -79.80872 36010 ft 410 kts 226°
2026-05-01 14:35 33.02694 -79.84780 36011 ft 411 kts 226°
2026-05-01 14:36 32.97999 -79.88697 36008 ft 413 kts 226°
2026-05-01 14:36 32.93323 -79.92596 36000 ft 414 kts 226°
2026-05-01 14:37 32.88599 -79.96527 35997 ft 415 kts 226°
2026-05-01 14:37 32.83863 -80.00464 36003 ft 416 kts 226°
2026-05-01 14:38 32.79117 -80.04404 35998 ft 416 kts 226°
2026-05-01 14:38 32.74394 -80.08319 35998 ft 417 kts 225°
2026-05-01 14:39 32.69634 -80.12261 36002 ft 418 kts 225°
2026-05-01 14:39 32.64856 -80.16211 35999 ft 418 kts 225°
2026-05-01 14:40 32.60086 -80.20149 35998 ft 418 kts 225°
2026-05-01 14:40 32.55340 -80.24063 35996 ft 418 kts 225°
2026-05-01 14:41 32.50491 -80.27908 35998 ft 425 kts 220°
2026-05-01 14:41 32.45259 -80.31249 36000 ft 428 kts 218°
2026-05-01 14:42 32.39969 -80.34509 36000 ft 429 kts 218°
2026-05-01 14:42 32.34729 -80.37775 35994 ft 428 kts 218°
2026-05-01 14:43 32.29468 -80.41085 35991 ft 428 kts 218°
2026-05-01 14:43 32.24218 -80.44396 35991 ft 429 kts 218°
2026-05-01 14:44 32.18956 -80.47710 35993 ft 429 kts 218°
2026-05-01 14:44 32.11090 -80.52657 35989 ft 429 kts 218°
2026-05-01 14:45 32.03177 -80.57621 35983 ft 429 kts 218°
2026-05-01 14:46 31.97905 -80.60923 35982 ft 429 kts 218°
2026-05-01 14:46 31.90026 -80.65850 35991 ft 429 kts 218°
2026-05-01 14:47 31.84746 -80.69148 35990 ft 430 kts 218°
2026-05-01 14:48 31.76927 -80.74023 35968 ft 431 kts 218°
2026-05-01 14:48 31.68975 -80.78971 35959 ft 432 kts 218°
2026-05-01 14:49 31.58378 -80.85549 35954 ft 433 kts 218°
2026-05-01 14:50 31.47720 -80.92148 35957 ft 433 kts 217°
2026-05-01 14:51 31.39752 -80.97070 35964 ft 434 kts 217°
2026-05-01 14:52 31.31746 -81.02008 35970 ft 434 kts 217°
2026-05-01 14:52 31.26268 -81.05055 35964 ft 446 kts 207°
2026-05-01 14:53 31.23228 -81.05966 35976 ft 456 kts 200°
2026-05-01 14:53 31.20077 -81.06357 35976 ft 468 kts 191°
2026-05-01 14:53 31.16817 -81.06430 35986 ft 470 kts 190°
2026-05-01 14:54 31.10276 -81.06472 35981 ft 470 kts 189°
2026-05-01 14:54 31.03733 -81.06549 35970 ft 470 kts 190°
2026-05-01 14:55 30.97199 -81.06675 35978 ft 469 kts 190°
2026-05-01 14:55 30.90706 -81.06814 35980 ft 469 kts 190°
2026-05-01 14:56 30.84179 -81.06953 35981 ft 469 kts 190°
2026-05-01 14:56 30.77647 -81.07090 35978 ft 469 kts 190°
2026-05-01 14:57 30.71121 -81.07224 35984 ft 469 kts 190°
2026-05-01 14:57 30.61376 -81.07436 35982 ft 468 kts 190°
2026-05-01 14:58 30.54875 -81.07790 35981 ft 467 kts 192°
2026-05-01 14:58 30.48393 -81.08226 35977 ft 467 kts 192°
2026-05-01 14:59 30.41891 -81.08640 35972 ft 468 kts 191°
2026-05-01 14:59 30.35388 -81.09033 35971 ft 468 kts 191°
2026-05-01 15:00 30.25656 -81.09608 35971 ft 468 kts 191°
2026-05-01 15:01 30.19146 -81.09993 35972 ft 468 kts 191°
2026-05-01 15:01 30.12641 -81.10379 35971 ft 468 kts 191°
2026-05-01 15:02 30.06191 -81.10759 35982 ft 464 kts 192°
2026-05-01 15:02 29.99817 -81.11130 35982 ft 456 kts 192°
2026-05-01 15:03 29.93476 -81.11511 35990 ft 457 kts 191°
2026-05-01 15:03 29.87121 -81.11887 35992 ft 458 kts 191°
2026-05-01 15:04 29.80786 -81.12255 35991 ft 460 kts 189°
2026-05-01 15:04 29.74351 -81.12335 35999 ft 464 kts 187°
2026-05-01 15:05 29.67889 -81.12321 35992 ft 465 kts 187°
2026-05-01 15:05 29.61418 -81.12364 35989 ft 466 kts 188°
2026-05-01 15:06 29.54967 -81.11587 35997 ft 485 kts 166°
2026-05-01 15:06 29.48635 -81.08848 35997 ft 487 kts 165°
2026-05-01 15:07 29.42284 -81.06110 35989 ft 487 kts 166°
2026-05-01 15:07 29.35912 -81.03447 35991 ft 488 kts 166°
2026-05-01 15:08 29.29531 -81.00813 35984 ft 487 kts 166°
2026-05-01 15:08 29.23197 -80.98204 35977 ft 486 kts 166°
2026-05-01 15:09 29.16833 -80.95582 35982 ft 486 kts 166°
2026-05-01 15:09 29.10484 -80.92968 35981 ft 485 kts 166°
2026-05-01 15:10 29.04136 -80.90358 35972 ft 484 kts 166°
2026-05-01 15:10 28.94683 -80.86478 35973 ft 483 kts 166°
2026-05-01 15:11 28.85200 -80.82600 35966 ft 482 kts 165°
2026-05-01 15:12 28.78891 -80.79989 35963 ft 483 kts 164°
2026-05-01 15:12 28.69534 -80.75825 35958 ft 483 kts 163°
2026-05-01 15:13 28.60228 -80.71680 35367 ft 473 kts 163°
2026-05-01 15:14 28.54102 -80.68970 34138 ft 473 kts 163°
2026-05-01 15:14 28.51030 -80.67623 33487 ft 474 kts 163°
2026-05-01 15:14 28.44896 -80.64935 32120 ft 477 kts 163°
2026-05-01 15:15 28.38684 -80.62212 30607 ft 480 kts 163°
2026-05-01 15:15 28.32438 -80.59475 29105 ft 481 kts 163°
2026-05-01 15:16 28.26249 -80.56761 27959 ft 473 kts 162°
2026-05-01 15:16 28.20208 -80.54115 26816 ft 465 kts 162°
2026-05-01 15:17 28.14229 -80.51502 25681 ft 457 kts 162°
2026-05-01 15:18 28.05456 -80.47676 24012 ft 445 kts 162°
2026-05-01 15:18 28.02579 -80.46422 23472 ft 441 kts 162°
2026-05-01 15:19 27.94135 -80.42749 21832 ft 431 kts 162°
2026-05-01 15:19 27.88580 -80.40336 20757 ft 425 kts 162°
2026-05-01 15:19 27.85834 -80.39144 20224 ft 421 kts 163°
2026-05-01 15:20 27.80403 -80.36786 19164 ft 415 kts 163°
2026-05-01 15:20 27.77715 -80.35619 18641 ft 412 kts 163°
2026-05-01 15:20 27.75055 -80.34467 18124 ft 409 kts 163°
2026-05-01 15:21 27.72439 -80.33335 17606 ft 406 kts 163°
2026-05-01 15:21 27.69812 -80.32198 17099 ft 403 kts 163°
2026-05-01 15:21 27.67203 -80.31068 16583 ft 400 kts 163°
2026-05-01 15:21 27.64619 -80.29951 16083 ft 397 kts 163°
2026-05-01 15:22 27.59490 -80.27736 15061 ft 392 kts 163°
2026-05-01 15:22 27.56953 -80.26641 14550 ft 390 kts 163°
2026-05-01 15:22 27.54424 -80.25550 14038 ft 387 kts 163°
2026-05-01 15:23 27.51917 -80.24470 13527 ft 385 kts 163°
2026-05-01 15:23 27.49421 -80.23395 13024 ft 383 kts 163°
2026-05-01 15:23 27.46978 -80.22341 12534 ft 380 kts 163°
2026-05-01 15:23 27.44514 -80.21279 12037 ft 377 kts 163°
2026-05-01 15:24 27.42071 -80.20228 11526 ft 376 kts 163°
2026-05-01 15:24 27.39638 -80.19181 11036 ft 373 kts 162°
2026-05-01 15:24 27.37232 -80.18150 10750 ft 364 kts 163°
2026-05-01 15:24 27.34922 -80.17197 10688 ft 344 kts 163°
2026-05-01 15:25 27.32730 -80.16313 10559 ft 326 kts 164°
2026-05-01 15:25 27.30633 -80.15473 10439 ft 315 kts 164°
2026-05-01 15:25 27.28598 -80.14660 10299 ft 306 kts 163°
2026-05-01 15:25 27.26623 -80.13870 10183 ft 297 kts 163°
2026-05-01 15:26 27.24729 -80.13109 10062 ft 289 kts 163°
2026-05-01 15:26 27.22845 -80.12349 9909 ft 288 kts 163°
2026-05-01 15:26 27.20957 -80.11590 9678 ft 287 kts 163°
2026-05-01 15:26 27.19099 -80.10841 9485 ft 281 kts 163°
2026-05-01 15:27 27.17274 -80.10107 9293 ft 276 kts 163°
2026-05-01 15:27 27.15472 -80.09382 9090 ft 275 kts 162°
2026-05-01 15:27 27.13649 -80.08651 8821 ft 282 kts 162°
2026-05-01 15:28 27.09851 -80.07127 8226 ft 297 kts 162°
2026-05-01 15:28 27.07928 -80.06354 7906 ft 297 kts 162°
2026-05-01 15:28 27.06004 -80.05580 7576 ft 290 kts 162°
2026-05-01 15:29 27.02257 -80.04075 6977 ft 284 kts 162°
2026-05-01 15:29 27.00404 -80.03331 6680 ft 282 kts 162°
2026-05-01 15:29 26.96733 -80.01860 6091 ft 278 kts 162°
2026-05-01 15:30 26.93105 -80.00405 5486 ft 276 kts 162°
2026-05-01 15:31 26.86110 -79.97604 4498 ft 251 kts 162°
2026-05-01 15:31 26.82955 -79.96342 4288 ft 229 kts 162°
2026-05-01 15:32 26.79950 -79.95724 4004 ft 223 kts 201°
2026-05-01 15:32 26.77416 -79.97615 3341 ft 218 kts 217°
2026-05-01 15:33 26.73898 -80.00525 2198 ft 200 kts 217°
2026-05-01 15:34 26.70787 -80.03068 1169 ft 173 kts 217°